480  
ASUS42 KILM 250514  
RWRILM  
RWRILM  
REGIONAL HOURLY WEATHER ROUNDUP  
NATIONAL WEATHER SERVICE WILMINGTON NC  
100 AM EDT MON MAY 25 2020  
 
NOTE: "FAIR" INDICATES FEW OR NO CLOUDS BELOW 12,000 FEET WITH NO  
SIGNIFICANT WEATHER AND/OR S TO VISIBILITY
.  
   
..............WFO WILMINGTON COUNTY WARNING AREA............
 
 
   
.....COASTAL NC AND SC COUNTIES...
 
 
 
CITY SKY/WX TMP DP RH WIND PRES REMARKS
 
WILMINGTON MOCLDY 68 65 90 E8 30.11S  
N MYRTLE BEACH CLOUDY 75 71 87 E8 30.09S  
MYRTLE BEACH CLOUDY 75 72 90 E8 30.10R  
   
.....INLAND NC AND SC COUNTIES....
 
 
 
CITY SKY/WX TMP DP RH WIND PRES REMARKS
 
LUMBERTON NOT AVBL  
ELIZABETHTOWN CLOUDY 70 66 88 CALM 30.12S  
WHITEVILLE NOT AVBL  
FLORENCE CLOUDY 71 67 87 E5 30.09F  
DARLINGTON MOCLDY 70 69 97 E5 30.10S  
KINGSTREE CLOUDY 72 70 94 CALM 30.09S  
HARTSVILLE FAIR 70 68 94 CALM 30.10S  
BENNETTSVILLE FAIR 70 70 100 NE5 30.09F  
CONWAY CLOUDY 72 72 100 CALM 30.09S  
GEORGETOWN FAIR 72 72 100 E3 30.09S  
MARION CLOUDY 70 70 100 NE3 30.10F  
   
...................REST OF NORTH CAROLINA...................
 
 
   
........EASTERN NC......
 
 
 
CITY SKY/WX TMP DP RH WIND PRES REMARKS
 
CAPE HATTERAS CLOUDY 60 58 92 NE8 30.13F  
JACKSONVILLE CLOUDY 66 62 87 NE12 30.14S  
MOREHEAD CITY CLOUDY 65 63 93 NE10 30.13F  
KENANSVILLE CLOUDY 66 63 88 E5 30.14R  
NEW BERN CLOUDY 62 59 90 E9 30.16S  
ELIZABETH CITY CLOUDY 58 57 97 N10 30.17S FOG  
   
........CENTRAL NC......
 
 
 
CITY SKY/WX TMP DP RH WIND PRES REMARKS
 
RALEIGH DURHAM CLOUDY 70 64 81 SE7 30.12F  
ROCKY MOUNT CLOUDY 63 60 90 NE6 30.16F  
ROANOKE RAPIDS NOT AVBL  
FAYETTEVILLE CLOUDY 73 67 81 SE9 30.11S  
HOFFMAN MOCLDY 70 70 100 CALM 30.10F  
   
........WESTERN NC......
 
 
 
CITY SKY/WX TMP DP RH WIND PRES REMARKS
 
CHARLOTTE MOCLDY 68 64 87 N5 30.12F  
GREENSBORO LGT RAIN 66 66 100 N5 30.11S  
HICKORY NOT AVBL  
BOONE NOT AVBL  
ASHEVILLE NOT AVBL  
   
....................REST OF SOUTH CAROLINA..................
 
 
   
........EASTERN SC......
 
 
 
CITY SKY/WX TMP DP RH WIND PRES REMARKS
 
CHARLESTON FAIR 72 70 93 NE3 30.06F  
BEAUFORT MCAS FAIR 77 73 87 CALM 30.06S  
HILTON HEAD FAIR 75 73 94 MISG 30.07S  
   
........CENTRAL SC......
 
 
 
CITY SKY/WX TMP DP RH WIND PRES REMARKS
 
COLUMBIA CLOUDY 71 68 90 NE5 30.06F  
ORANGEBURG FAIR 72 66 81 SE5 30.07F  
SUMTER SHAW MOCLDY 70 69 96 NE3 30.08S  
   
........WESTERN SC......
 
 
 
CITY SKY/WX TMP DP RH WIND PRES REMARKS
 
GREENVILLE NOT AVBL  
ROCK HILL MOCLDY 67 66 97 CALM 30.11F  
ANDERSON CLOUDY 71 65 81 NE3 30.10F  
CLEMSON NOT AVBL  
GREENWOOD FAIR 67 67 100 CALM 30.11S  
 
   
..................COASTAL AND OFFSHORE REPORTS...............
 
 
   
...............LOCAL PIERS AND NC RESERVE.............
 
 
 
STATION/POSITION TIME SKY/WX TEMP WIND PRES VSBY
 
AIR SEA DIR/SP/G  
(UTC) (F) (DEG/KT/KT) (MB) (MI)  
JOHNY MRCER PIER 0424 70 75 50/ 16/ 20 1019.2  
NC RESRV MASNBRO NOT AVBL  
OCEAN CREST PIER NOT AVBL  
SPRINGMAID PIER 0424 74 N/A  
 
   
...............COASTAL AND OFFSHORE BUOYS.............
 
 
 
STATION/POSITION TIME SKY/WX TEMP WIND PRES VSBY
 
AIR SEA DIR/SP/G  
(UTC) (F) (DEG/KT/KT) (MB) (MI)  
DIMNDSHOAL 41025 0450 63 79 10/ 14/ 17 1019.3F  
WVE H/P(F/S)= 4/10 SWL H/P/D(F/S/D)= 3/110/10  
 
CAPE LOOKOUT 0500 65 40/ 17/ 19 1020.3F  
ONSLOW BAY 41036 NOT AVBL  
ONSLOW BAY 41064 NOT AVBL  
ONSLOW BAY 41159 0500 76 N/A  
WVE H/P(F/S)= 4/ 5  
 
MASNBO INL 41110 0440 74 N/A  
WVE H/P(F/S)= 4/ 5  
 
WILM HARBR 41108 0430 74 N/A  
WVE H/P(F/S)= 3/ 5  
 
27SE WRITB 41037 0408 71 76 90/ 16/ 21 1019.5F  
FRYING PAN 41013 0500 75 76 70/ 16/ 17 1018.2  
SUNST NRSH 41024 0408 74 76 90/ 14/ 17 1019.0R  
CAPRS NRSH 41029 0408 77 79 100/ 4/ 6 1018.1F  
EDISTO 41004 0500 76 76 1018.1  
 
   
.........OFFSHORE BUOYS BEYOND 100 NM OFFSHORE........
 
   
....IN A TRIANGLE---HAT TO BERMUDA TO BAHAMAS TO HAT..
 
 
 
 
STATION/POSITION TIME SKY/WX TEMP WIND PRES VSBY
 
AIR SEA DIR/SP/G  
(UTC) (F) (DEG/KT/KT) (MB) (MI)  
150E HAT 41001 0500 71 72 340/ 6/ 8 1016.9  
W BERMUDA 41048 0450 73 180/ 12/ 14 1018.0F  
WVE H/P(F/S)= 4/ 9 SWL H/P/D(F/S/D)= 3/110/ 9  
 
ATLANTIC S 41049 0500 100/ 17/ 21 1018.8  
E BAHAMAS 41046 0500 81 82 90/ 8/ 10 1016.0  
NE BAHAMAS 41047 0500 76 1017.6  
120E CANVRL41010 0450 79 120/ 16/ 19 N/A  
WVE H/P(F/S)= 5/ 8 SWL H/P/D(F/S/D)= 3/100/ 8  
 
END  
 
 
CLICK HERE TO GO TO PREVIOUS BULLETINS.

The Nexlab NC Page
The Nexlab SC Page Main Text Page